[[{"header":{"parameterUnit":"m.s-1","parameterCategory":2,"la1":30.2991,"la2":30.254,"lo1":-89.0895,"lo2":-89.0444,"dy":0.0017,"dx":0.0017,"nx":28,"ny":28,"refTime":"2024-12-16T09:00:00:Z","depth":"0","parameterNumber":2,"parameterNumberName":"U-component_of_CURRENTS"},"data":[0,0,0,0,0,0,0,0,0,0,0,0,0,0,0,0,0,0,0,0,0,0,0,0,0,0,0,0,0,0,0,0,0,0,0,0,0,0,0,0,0,0,0,0,0,0,0,0,0,0,0,0,0,0,0,0,0,0,0.4179,0.4179,0,0.4162,0.4161,0.416,0.4142,0.4143,0.4143,0.4143,0.41,0.4099,0.4097,0,0,0,0,0,0,0,0,0,0,0,0,0,0.4137,0.4138,0.4179,0.4179,0.4179,0.4162,0.4161,0.416,0.4142,0.4143,0.4143,0.4143,0.4101,0.4099,0.4097,0,0,0,0,0,0,0,0,0,0,0,0,0,0.4135,0.4138,0.4179,0.4173,0.4173,0.4162,0.4161,0.416,0.4142,0.4143,0.4143,0.4144,0.4101,0.4099,0.4097,0.4074,0,0,0.409,0.4089,0,0,0,0,0,0,0,0,0.4136,0.4136,0.4174,0.4174,0.4173,0.416,0.4131,0.4132,0.4142,0.4147,0.4143,0.4144,0.4122,0.4118,0.4105,0.4072,0.407,0.409,0.4089,0.4088,0.4087,0,0,0,0,0,0,0,0.4136,0.4136,0.4166,0.4174,0.4174,0.4152,0.4152,0.413,0.4126,0.4147,0.4147,0.4155,0.4121,0.4107,0.4104,0.4069,0.409,0.4088,0.4087,0.4086,0.4101,0.4102,0,0,0,0,0,0,0.4153,0.4137,0.4166,0.4166,0.4162,0.4153,0.4153,0.4159,0.4127,0.4125,0.4154,0.4154,0.411,0.4106,0.4102,0.4151,0.4088,0.4086,0.4085,0.4099,0.4101,0.4103,0,0,0,0,0,0,0.4152,0.4156,0.4167,0.4156,0.4157,0.4154,0.416,0.4158,0.4156,0.4135,0.4131,0.4157,0.4111,0.4105,0.4102,0.4147,0.4085,0.4083,0.4097,0.41,0.4102,0.42,0,0,0,0,0,0,0.4151,0.4155,0.4156,0.4157,0.4158,0.4178,0.4161,0.4158,0.4163,0.4162,0.4136,0.4131,0.4111,0.4105,0.41,0.4143,0.4081,0.4095,0.4098,0.4101,0.4194,0.4205,0.4214,0,0,0,0,0,0.415,0.4154,0.4156,0.416,0.4163,0.418,0.4177,0.4172,0.4163,0.4169,0.4153,0.4133,0.4122,0.4104,0.4097,0.4141,0.4093,0.4097,0.4101,0.419,0.4203,0.4214,0,0,0,0,0,0,0.4126,0.4154,0.4156,0.4165,0.4181,0.4179,0.4184,0.4179,0.4168,0.4165,0.4139,0.4134,0.4155,0.4128,0.4109,0.4156,0.4111,0.4113,0.4181,0.4193,0.4203,0.4207,0.4079,0,0,0,0,0,0.4126,0.4142,0.4163,0.417,0.4184,0.4184,0.4187,0.4187,0.4184,0.4179,0.4167,0.4157,0.4162,0.4161,0.4154,0.4164,0.4156,0.4193,0.4204,0.4212,0.4212,0.4248,0.4261,0.4115,0.4115,0.4115,0,0,0.4118,0.4136,0.4143,0.4168,0.4177,0.4199,0.4186,0.4201,0.422,0.4175,0.4192,0.4188,0.4173,0.4198,0.4206,0.4182,0.4252,0.4217,0.4225,0.422,0.4253,0.4267,0.428,0.4118,0.4118,0.4117,0,0,0.412,0.4133,0.4152,0.4168,0.4196,0.4208,0.4219,0.4232,0.4243,0.426,0.4245,0.4265,0.4259,0.4267,0.4269,0.4326,0.4305,0.4332,0.4384,0.442,0.4432,0.4443,0.446,0.4471,0.4336,0.4337,0.4337,0,0.4106,0.4128,0.4157,0.4179,0.419,0.4219,0.4235,0.4259,0.4268,0.428,0.4283,0.4308,0.4298,0.4336,0.4365,0.4351,0.4358,0.434,0.4434,0.4444,0.4453,0.4468,0.4479,0.4342,0.4341,0.4341,0.434,0,0.4121,0.4137,0.4152,0.4195,0.4216,0.4233,0.4279,0.4302,0.4327,0.435,0.44,0.4405,0.4418,0.4437,0.4419,0.4485,0.4465,0.4445,0.4404,0.4474,0.4485,0.4495,0.4349,0.4347,0.4346,0.4345,0,0,0.4078,0.4148,0.4147,0.4161,0.4218,0.4231,0.4287,0.4335,0.438,0.4418,0.4471,0.4507,0.452,0.4523,0.4521,0.4561,0.464,0.4537,0.4536,0.4555,0.4713,0.4665,0.4671,0.4642,0.4644,0.4645,0.4698,0,0.4072,0.4108,0.4147,0.4175,0.4196,0.4239,0.4293,0.4344,0.441,0.4477,0.4519,0.4574,0.4554,0.4579,0.4618,0.4637,0.467,0.4627,0.464,0.464,0.459,0.4682,0.4539,0.4571,0.4707,0.4709,0.471,0,0.4058,0.4087,0.411,0.4166,0.418,0.4204,0.4283,0.4335,0.4448,0.4515,0.4586,0.4624,0.4691,0.4672,0.4741,0.4717,0.4719,0.4734,0.4735,0.4659,0.4611,0.4521,0.4583,0.4483,0.4725,0.4723,0.4722,0,0.3998,0.4051,0.4063,0.4076,0.4157,0.4169,0.4216,0.4328,0.4393,0.4538,0.4598,0.4696,0.4738,0.478,0.4802,0.4781,0.4879,0.4845,0.48,0.4795,0.4659,0.4639,0.4622,0.489,0.4889,0.4889,0.4889,0,0.396,0.3967,0.403,0.403,0.4057,0.4125,0.4187,0.427,0.4405,0.4479,0.4596,0.4669,0.4768,0.4825,0.4841,0.4859,0.4903,0.4827,0.4817,0.4689,0.4672,0.4562,0.4513,0.4891,0.4891,0.489,0.489,0,0.3891,0.3931,0.3946,0.401,0.4026,0.4041,0.4148,0.4211,0.4346,0.4445,0.4487,0.4661,0.4751,0.4827,0.4914,0.4889,0.4795,0.4909,0.4749,0.4719,0.4567,0.4528,0.433,0.419,0.4874,0.4873,0.4872,0,0.3864,0.3864,0.3908,0.3917,0.3938,0.3982,0.4025,0.4168,0.4243,0.4418,0.4453,0.4592,0.4689,0.4822,0.4847,0.4892,0.4745,0.4748,0.4679,0.4559,0.4509,0.4332,0.4214,0.4538,0.4535,0.4532,0.453,0,0.3818,0.3826,0.3843,0.3865,0.3886,0.3914,0.3977,0.4024,0.4177,0.4263,0.4388,0.4483,0.4634,0.4656,0.4729,0.4731,0.4533,0.4693,0.4612,0.4288,0.405,0.3908,0.4499,0.4506,0.4509,0.4511,0.4512,0.4513,0.3786,0.3785,0.3811,0.3818,0.3836,0.3835,0.3824,0.3905,0.3982,0.4053,0.4229,0.4288,0.4435,0.4548,0.4519,0.4403,0.4363,0.4285,0.4262,0.4105,0.3913,0.4451,0.4421,0.4423,0.4425,0.4426,0.4427,0,0.3764,0.3768,0.3772,0.3766,0.3736,0.3769,0.3786,0.3751,0.3767,0.3856,0.3947,0.4035,0.4086,0.4158,0.4166,0.4016,0.3814,0.3896,0.3622,0.3538,0.407,0.4002,0.3827,0.3827,0.3827,0.3827,0.3828,0.3828,0.3757,0.375,0.374,0.3673,0.3649,0.3554,0.3526,0.3486,0.3507,0.3476,0.3478,0.3571,0.383,0.3964,0.3849,0.3744,0.3429,0.3274,0.3237,0.3654,0.3687,0.3719,0.3645,0.3397,0.3397,0.2558,0.2551,0.2547]},{"header":{"parameterUnit":"m.s-1","parameterCategory":2,"la1":30.2991,"la2":30.254,"lo1":-89.0895,"lo2":-89.0444,"dy":0.0017,"dx":0.0017,"nx":28,"ny":28,"refTime":"2024-12-16T09:00:00:Z","depth":"0","parameterNumber":3,"parameterNumberName":"V-component_of_CURRENTS"},"data":[0,0,0,0,0,0,0,0,0,0,0,0,0,0,0,0,0,0,0,0,0,0,0,0,0,0,0,0,0,0,0,0,0,0,0,0,0,0,0,0,0,0,0,0,0,0,0,0,0,0,0,0,0,0,0,0,0,0,-0.006,-0.006,0,-0.0095,-0.0096,-0.0096,-0.0138,-0.0139,-0.0139,-0.014,-0.0252,-0.0254,-0.0256,0,0,0,0,0,0,0,0,0,0,0,0,0,-0.0049,-0.0049,-0.006,-0.006,-0.0061,-0.0095,-0.0096,-0.0097,-0.0138,-0.0139,-0.014,-0.014,-0.0251,-0.0254,-0.0257,0,0,0,0,0,0,0,0,0,0,0,0,0,-0.0067,-0.0049,-0.006,-0.0085,-0.0087,-0.0095,-0.0096,-0.0097,-0.0138,-0.0139,-0.014,-0.0141,-0.025,-0.0253,-0.0257,-0.0264,0,0,-0.0268,-0.027,0,0,0,0,0,0,0,0,-0.0066,-0.0067,-0.0081,-0.0083,-0.0086,-0.0112,-0.0133,-0.0156,-0.0138,-0.012,-0.014,-0.0141,-0.0211,-0.0218,-0.0223,-0.0269,-0.0274,-0.0269,-0.0271,-0.0272,-0.0274,0,0,0,0,0,0,0,-0.0064,-0.0066,-0.0075,-0.0081,-0.0084,-0.0101,-0.0104,-0.0137,-0.0163,-0.0122,-0.0125,-0.0126,-0.0213,-0.0219,-0.0226,-0.0275,-0.0269,-0.0272,-0.0274,-0.0276,-0.0353,-0.0353,0,0,0,0,0,0,-0.0056,-0.0065,-0.0074,-0.0076,-0.0076,-0.01,-0.0104,-0.0104,-0.0161,-0.0169,-0.0126,-0.0128,-0.0213,-0.0222,-0.023,-0.0246,-0.0272,-0.0276,-0.0278,-0.0353,-0.0353,-0.0353,0,0,0,0,0,0,-0.0055,-0.0056,-0.0073,-0.0071,-0.0074,-0.0099,-0.0099,-0.0104,-0.0109,-0.0163,-0.0173,-0.0125,-0.0214,-0.0225,-0.0253,-0.0251,-0.0278,-0.0281,-0.0353,-0.0353,-0.0353,-0.0275,0,0,0,0,0,0,-0.0055,-0.0055,-0.0051,-0.007,-0.0073,-0.0069,-0.0098,-0.0104,-0.0109,-0.0112,-0.0166,-0.0177,-0.0215,-0.0247,-0.0257,-0.0256,-0.0284,-0.0354,-0.0353,-0.0353,-0.0278,-0.0272,-0.0267,0,0,0,0,0,-0.0054,-0.0047,-0.0051,-0.0052,-0.0067,-0.0068,-0.0071,-0.0093,-0.0108,-0.0102,-0.014,-0.0175,-0.0253,-0.025,-0.0261,-0.0261,-0.0354,-0.0353,-0.0353,-0.028,-0.0273,-0.0267,0,0,0,0,0,0,-0.004,-0.0051,-0.0056,-0.0052,-0.0054,-0.0074,-0.0071,-0.0086,-0.0109,-0.0114,-0.0168,-0.0182,-0.0212,-0.0243,-0.0239,-0.0284,-0.0311,-0.0313,-0.0252,-0.0246,-0.0241,-0.0198,-0.0287,0,0,0,0,0,-0.0032,-0.0028,-0.0039,-0.0032,-0.0031,-0.0048,-0.0051,-0.0062,-0.0084,-0.0095,-0.0135,-0.0179,-0.0219,-0.0235,-0.0278,-0.0292,-0.0315,-0.0302,-0.0297,-0.0292,-0.0266,-0.0299,-0.0294,-0.0352,-0.0352,-0.0352,0,0,-0.0022,-0.0028,-0.0025,-0.0028,-0.0031,-0.0013,-0.0051,-0.0046,-0.0034,-0.0104,-0.0109,-0.0165,-0.0221,-0.0245,-0.0261,-0.0268,-0.029,-0.0292,-0.0287,-0.0263,-0.0298,-0.0293,-0.0287,-0.0351,-0.0352,-0.0352,0,0,0.0015,-0.0003,0.0021,0.0027,0.003,0.0013,0.0019,0.0003,-0.0009,-0.0027,-0.0074,-0.0113,-0.018,-0.0204,-0.0231,-0.0217,-0.0268,-0.0246,-0.0176,-0.0209,-0.0204,-0.02,-0.0226,-0.0225,-0.0235,-0.0235,-0.0235,0,0.003,0.006,0.003,0.0063,0.0079,0.0031,0.0074,0.0054,0.0028,0.0032,-0.0022,-0.0102,-0.0157,-0.0164,-0.0167,-0.0203,-0.023,-0.0194,-0.02,-0.0197,-0.0194,-0.0221,-0.0221,-0.0231,-0.0232,-0.0232,-0.0232,0,0.0102,0.0122,0.0138,0.0162,0.0171,0.0195,0.0174,0.0169,0.0128,0.0107,0.0073,-0.001,-0.0047,-0.0087,-0.0128,-0.0128,-0.0157,-0.0196,-0.021,-0.0183,-0.0214,-0.0215,-0.0226,-0.0227,-0.0228,-0.0229,0,0,0.0148,0.0182,0.0191,0.0228,0.023,0.0249,0.0263,0.0273,0.0302,0.0219,0.0244,0.0141,0.0092,0.0061,-0.0003,-0.0037,-0.0056,-0.01,-0.0103,-0.0112,-0.0125,-0.0142,-0.0145,-0.0101,-0.0101,-0.0101,-0.0157,0,0.022,0.0301,0.0298,0.0373,0.0413,0.0388,0.041,0.0408,0.0381,0.0384,0.0284,0.0262,0.0149,0.0131,0.0077,-0.0014,-0.0054,-0.0037,-0.0161,-0.0163,-0.0171,-0.0144,-0.0105,-0.0151,-0.0158,-0.0158,-0.0158,0,0.03,0.0343,0.0431,0.0489,0.0507,0.0537,0.0585,0.0608,0.0592,0.0571,0.0525,0.044,0.038,0.0269,0.0126,0.014,0.0021,-0.0068,-0.0073,-0.0108,-0.018,-0.018,-0.0153,-0.0344,-0.016,-0.016,-0.016,0,0.0359,0.0437,0.051,0.0534,0.0583,0.0622,0.0649,0.0665,0.0725,0.0704,0.0724,0.0612,0.0576,0.0406,0.0198,0.0166,0.0037,-0.0032,-0.0159,-0.0162,-0.0159,-0.0161,-0.0314,-0.0131,-0.0131,-0.0131,-0.0131,0,0.0435,0.0494,0.0543,0.0588,0.0688,0.0699,0.0813,0.0821,0.0878,0.0967,0.0831,0.0868,0.0607,0.0487,0.027,0.0067,0.0087,-0.0127,-0.017,-0.0132,-0.0132,-0.0325,-0.0455,-0.0133,-0.0133,-0.0132,-0.0132,0,0.0487,0.0515,0.0607,0.0682,0.0717,0.0793,0.0937,0.1028,0.1047,0.1162,0.116,0.1082,0.0928,0.0652,0.0401,0.0192,-0.0135,-0.0108,-0.0043,-0.0078,-0.0377,-0.0503,-0.0704,-0.0785,-0.0244,-0.0245,-0.0245,0,0.0519,0.0569,0.0684,0.0761,0.0802,0.0926,0.1026,0.1103,0.1227,0.1304,0.1375,0.1262,0.1226,0.085,0.0455,0.0089,-0.0136,-0.0125,-0.0186,-0.0369,-0.0542,-0.0638,-0.0699,-0.0158,-0.0158,-0.0157,-0.0157,0,0.0591,0.0625,0.0711,0.0863,0.098,0.1133,0.1287,0.1415,0.1518,0.1634,0.1764,0.1743,0.1364,0.1034,0.0504,0.0235,-0.0251,-0.0132,-0.0338,-0.0491,-0.0587,-0.0693,-0.0151,-0.0156,-0.0156,-0.0156,-0.0156,-0.0156,0.065,0.0726,0.0842,0.0986,0.113,0.1325,0.148,0.1681,0.191,0.2109,0.2064,0.209,0.1541,0.0846,0.046,-0.0219,-0.0256,-0.042,-0.0557,-0.0636,-0.0717,-0.0165,-0.0213,-0.0214,-0.0214,-0.0215,-0.0215,0,0.0741,0.0832,0.0967,0.115,0.1318,0.1377,0.1649,0.1835,0.214,0.2316,0.2449,0.2178,0.155,0.0855,-0.0069,-0.0541,-0.0723,-0.0814,-0.0943,-0.0986,-0.0497,-0.0494,-0.0584,-0.0584,-0.0583,-0.0583,-0.0583,-0.0583,0.0801,0.0942,0.1004,0.1273,0.141,0.1658,0.1823,0.2117,0.2315,0.2583,0.261,0.2552,0.197,0.036,-0.0702,-0.0949,-0.129,-0.1384,-0.156,-0.1236,-0.1209,-0.1184,-0.121,-0.1449,-0.145,-0.1953,-0.1958,-0.1963]}],[{"header":{"parameterUnit":"m.s-1","parameterCategory":2,"la1":30.2991,"la2":30.254,"lo1":-89.0895,"lo2":-89.0444,"dy":0.0017,"dx":0.0017,"nx":28,"ny":28,"refTime":"2024-12-16T09:00:00:Z","depth":"2","parameterNumber":2,"parameterNumberName":"U-component_of_CURRENTS"},"data":[0,0,0,0,0,0,0,0,0,0,0,0,0,0,0,0,0,0,0,0,0,0,0,0,0,0,0,0,0,0,0,0,0,0,0,0,0,0,0,0,0,0,0,0,0,0,0,0,0,0,0,0,0,0,0,0,0,0,0.3328,0.3329,0,0.338,0.3381,0.3381,0.3396,0.3396,0.3395,0.3395,0.341,0.3411,0.3411,0,0,0,0,0,0,0,0,0,0,0,0,0,0.3288,0.3288,0.3328,0.3329,0.3329,0.338,0.3381,0.3381,0.3396,0.3396,0.3395,0.3395,0.341,0.3411,0.3411,0,0,0,0,0,0,0,0,0,0,0,0,0,0.3318,0.3288,0.3328,0.3343,0.3345,0.338,0.3381,0.3382,0.3396,0.3396,0.3395,0.3395,0.341,0.3411,0.3412,0.3423,0,0,0.3414,0.3415,0,0,0,0,0,0,0,0,0.3316,0.3319,0.334,0.3342,0.3345,0.3382,0.3372,0.3394,0.3396,0.3376,0.3395,0.3395,0.3398,0.34,0.341,0.3424,0.3425,0.3414,0.3415,0.3415,0.3416,0,0,0,0,0,0,0,0.3314,0.3318,0.3348,0.3341,0.3344,0.3364,0.3368,0.3377,0.3387,0.3377,0.3379,0.3386,0.3399,0.3409,0.341,0.3425,0.3414,0.3415,0.3416,0.3416,0.3509,0.3511,0,0,0,0,0,0,0.3308,0.3315,0.3346,0.3349,0.3331,0.3365,0.3369,0.337,0.3387,0.339,0.3387,0.3387,0.3407,0.3409,0.3411,0.3474,0.3415,0.3416,0.3417,0.3507,0.3509,0.3511,0,0,0,0,0,0,0.3306,0.331,0.3344,0.3335,0.3341,0.3366,0.3367,0.3371,0.3401,0.3395,0.3397,0.3414,0.3407,0.3409,0.344,0.3472,0.3417,0.3417,0.3505,0.3508,0.351,0.3569,0,0,0,0,0,0,0.3305,0.3309,0.3314,0.3334,0.3341,0.3378,0.3367,0.3372,0.3405,0.3406,0.3419,0.3419,0.3407,0.3439,0.3441,0.3473,0.3418,0.3502,0.3506,0.3509,0.3565,0.3574,0.3581,0,0,0,0,0,0.3303,0.3307,0.3313,0.3318,0.3344,0.3379,0.3385,0.3401,0.3407,0.3426,0.3437,0.342,0.3463,0.3441,0.3443,0.3476,0.35,0.3505,0.3509,0.3561,0.3572,0.3581,0,0,0,0,0,0,0.3281,0.331,0.3317,0.3326,0.3358,0.3382,0.3401,0.3417,0.3443,0.3447,0.3441,0.3443,0.3484,0.3476,0.3451,0.3515,0.3481,0.3486,0.352,0.353,0.3538,0.3547,0.3419,0,0,0,0,0,0.3281,0.3301,0.3328,0.3339,0.3356,0.3386,0.3405,0.342,0.3443,0.3455,0.3463,0.3477,0.3502,0.3511,0.3525,0.3557,0.3569,0.3582,0.3591,0.3598,0.3608,0.3663,0.3678,0.3525,0.3525,0.3525,0,0,0.3274,0.3295,0.3304,0.3338,0.3363,0.3393,0.3397,0.3434,0.3465,0.3452,0.3493,0.3508,0.3519,0.3557,0.3574,0.3553,0.3649,0.3603,0.3609,0.3616,0.367,0.3684,0.3697,0.3528,0.3528,0.3527,0,0,0.3275,0.3293,0.3312,0.3344,0.339,0.3412,0.343,0.3467,0.3492,0.3532,0.3539,0.3576,0.3599,0.362,0.3633,0.3698,0.3694,0.3704,0.3749,0.3803,0.3816,0.3827,0.3863,0.3877,0.3705,0.3705,0.3705,0,0.3268,0.3289,0.3324,0.3355,0.3383,0.3424,0.3453,0.3489,0.3532,0.3558,0.3551,0.3627,0.3631,0.3697,0.3719,0.3716,0.3742,0.3707,0.3814,0.3825,0.3836,0.387,0.3885,0.3708,0.3708,0.3707,0.3707,0,0.328,0.3307,0.3325,0.3378,0.3415,0.3449,0.3502,0.3542,0.3573,0.3606,0.368,0.3702,0.3746,0.3761,0.3758,0.3845,0.3837,0.382,0.3786,0.3855,0.3886,0.3901,0.3713,0.3712,0.3711,0.371,0,0,0.3238,0.3317,0.3324,0.3351,0.3431,0.3456,0.3524,0.3588,0.3645,0.3688,0.3759,0.3809,0.3833,0.3851,0.3868,0.3916,0.401,0.3905,0.3906,0.3936,0.4129,0.4069,0.4078,0.4016,0.4019,0.4021,0.412,0,0.3238,0.3284,0.3334,0.3387,0.3414,0.3484,0.3547,0.3616,0.3684,0.3764,0.3814,0.3891,0.3867,0.3911,0.3954,0.4008,0.4051,0.3984,0.4062,0.4064,0.3998,0.4094,0.3775,0.3833,0.4134,0.4137,0.4138,0,0.3227,0.3265,0.3308,0.3393,0.3415,0.3458,0.3569,0.3634,0.3761,0.3825,0.391,0.3962,0.4055,0.4025,0.4137,0.4099,0.412,0.4147,0.4151,0.4084,0.4031,0.3813,0.3847,0.4162,0.416,0.4159,0.4157,0,0.3163,0.3242,0.3272,0.3301,0.3407,0.3447,0.3512,0.3643,0.372,0.388,0.3954,0.4064,0.4136,0.419,0.4237,0.4205,0.4354,0.4308,0.4268,0.4263,0.4001,0.3969,0.4383,0.4383,0.4382,0.4382,0.4382,0,0.3134,0.3158,0.3243,0.326,0.3316,0.341,0.3498,0.3598,0.3754,0.3847,0.3978,0.4072,0.4186,0.4272,0.429,0.4333,0.4392,0.4303,0.4298,0.4013,0.3982,0.4267,0.4252,0.4386,0.4385,0.4384,0.4384,0,0.306,0.3115,0.3152,0.3253,0.3285,0.3327,0.3471,0.3544,0.3711,0.3843,0.3902,0.4106,0.4235,0.4322,0.4437,0.4398,0.4449,0.4438,0.4095,0.4048,0.4305,0.4292,0.4414,0.4413,0.4412,0.4412,0.4411,0,0.3021,0.3035,0.3122,0.3146,0.3191,0.3268,0.3329,0.3503,0.3588,0.3841,0.3892,0.4095,0.4204,0.4367,0.4368,0.4414,0.4461,0.4117,0.3994,0.4332,0.4316,0.4304,0.4293,0.3667,0.366,0.3655,0.365,0,0.2957,0.2992,0.3026,0.3074,0.3124,0.3175,0.3272,0.3328,0.3532,0.3656,0.3829,0.3954,0.4143,0.4076,0.4159,0.4128,0.4089,0.4009,0.4465,0.3716,0.3638,0.3618,0.3629,0.3602,0.3607,0.361,0.3613,0.3615,0.2904,0.2912,0.296,0.2988,0.3038,0.3058,0.3055,0.317,0.3272,0.3414,0.3628,0.3709,0.381,0.3796,0.3701,0.3625,0.39,0.3707,0.3719,0.3738,0.3642,0.3567,0.3499,0.3503,0.3507,0.351,0.3513,0,0.2838,0.2855,0.2873,0.2886,0.2864,0.2948,0.2995,0.2962,0.2999,0.3188,0.3312,0.3139,0.3146,0.3225,0.3056,0.308,0.3002,0.2939,0.2792,0.2847,0.2894,0.2748,0.2371,0.2367,0.2363,0.2359,0,0,0.2806,0.2782,0.2776,0.2694,0.2709,0.2647,0.2637,0.2621,0.2692,0.271,0.2748,0.3033,0.3173,0.2729,0.269,0.2493,0.2637,0.2401,0.3333,0.3218,0.3258,0.3374,0.3218,0,0,0,0,0]},{"header":{"parameterUnit":"m.s-1","parameterCategory":2,"la1":30.2991,"la2":30.254,"lo1":-89.0895,"lo2":-89.0444,"dy":0.0017,"dx":0.0017,"nx":28,"ny":28,"refTime":"2024-12-16T09:00:00:Z","depth":"2","parameterNumber":3,"parameterNumberName":"V-component_of_CURRENTS"},"data":[0,0,0,0,0,0,0,0,0,0,0,0,0,0,0,0,0,0,0,0,0,0,0,0,0,0,0,0,0,0,0,0,0,0,0,0,0,0,0,0,0,0,0,0,0,0,0,0,0,0,0,0,0,0,0,0,0,0,0.0254,0.0253,0,0.0174,0.0173,0.0172,0.0119,0.0118,0.0118,0.0118,0.0018,0.0016,0.0013,0,0,0,0,0,0,0,0,0,0,0,0,0,0.0272,0.0272,0.0254,0.0253,0.0253,0.0175,0.0173,0.0172,0.0119,0.0118,0.0118,0.0118,0.0019,0.0016,0.0013,0,0,0,0,0,0,0,0,0,0,0,0,0,0.0233,0.0272,0.0254,0.0219,0.0215,0.0175,0.0173,0.0171,0.0119,0.0118,0.0118,0.0118,0.002,0.0016,0.0012,-0.0008,0,0,0.0001,-0.0001,0,0,0,0,0,0,0,0,0.0235,0.0232,0.0225,0.0221,0.0217,0.0159,0.0143,0.0111,0.0119,0.0152,0.0118,0.0118,0.0065,0.0058,0.0039,-0.0013,-0.0017,0.0,-0.0002,-0.0004,-0.0005,0,0,0,0,0,0,0,0.0238,0.0234,0.0219,0.0224,0.0219,0.0177,0.0172,0.0136,0.0108,0.0149,0.0146,0.0142,0.0063,0.0043,0.0036,-0.0019,0.0,-0.0003,-0.0005,-0.0007,-0.0087,-0.0087,0,0,0,0,0,0,0.0259,0.0238,0.0222,0.0217,0.0229,0.0177,0.0171,0.0175,0.0109,0.0099,0.0142,0.014,0.005,0.0041,0.0033,0.0028,-0.0004,-0.0007,-0.001,-0.0087,-0.0087,-0.0087,0,0,0,0,0,0,0.026,0.0258,0.0225,0.0227,0.0221,0.0178,0.0182,0.0174,0.0158,0.0104,0.0094,0.0136,0.0049,0.0038,0.0011,0.0022,-0.0009,-0.0013,-0.0087,-0.0087,-0.0087,0.0002,0,0,0,0,0,0,0.0261,0.0259,0.0264,0.0229,0.0221,0.0216,0.0183,0.0172,0.0157,0.0153,0.0095,0.0085,0.0048,0.0017,0.0007,0.0017,-0.0016,-0.0088,-0.0087,-0.0087,-0.0001,0.0006,0.0011,0,0,0,0,0,0.0262,0.028,0.0265,0.0263,0.0232,0.0217,0.0209,0.0175,0.0157,0.0157,0.0118,0.0087,0.0012,0.0014,0.0002,0.0011,-0.0088,-0.0087,-0.0087,-0.0003,0.0004,0.0011,0,0,0,0,0,0,0.029,0.0276,0.0259,0.0271,0.025,0.0209,0.0206,0.0181,0.0148,0.0145,0.009,0.0078,0.0057,0.002,0.0024,-0.0012,-0.0044,-0.0045,0.0024,0.0031,0.0037,0.0059,-0.0019,0,0,0,0,0,0.03,0.0309,0.0283,0.0291,0.0286,0.0245,0.0232,0.0212,0.0181,0.0166,0.0126,0.0083,0.0048,0.003,-0.0006,-0.0025,-0.0065,-0.0029,-0.0023,-0.0017,-0.0008,-0.0059,-0.0057,-0.0085,-0.0085,-0.0085,0,0,0.0313,0.0305,0.0309,0.0297,0.0276,0.0282,0.0237,0.023,0.0231,0.016,0.015,0.0103,0.0048,0.0029,0.0016,0.0,-0.003,-0.0017,-0.0011,-0.0006,-0.0059,-0.0056,-0.0053,-0.0085,-0.0085,-0.0085,0,0,0.0351,0.0338,0.036,0.035,0.0331,0.031,0.0314,0.028,0.0262,0.0244,0.0194,0.0158,0.0105,0.007,0.0044,0.0059,0.0004,0.0045,0.0093,0.0044,0.0047,0.0048,0.0006,0.0003,0.0048,0.0048,0.0048,0,0.0366,0.039,0.0362,0.0379,0.0381,0.0332,0.0357,0.0331,0.0292,0.0284,0.0255,0.0175,0.0126,0.0102,0.0104,0.0075,0.0038,0.0075,0.0054,0.0054,0.0054,0.0011,0.0006,0.0052,0.0052,0.0051,0.0051,0,0.0419,0.0436,0.045,0.0458,0.0455,0.0468,0.044,0.043,0.0399,0.0371,0.0338,0.0263,0.0219,0.0192,0.0151,0.0129,0.0101,0.0069,0.0041,0.0063,0.0015,0.0009,0.0059,0.0057,0.0056,0.0055,0,0,0.0463,0.0486,0.049,0.0512,0.0502,0.051,0.0516,0.051,0.0523,0.046,0.0462,0.0382,0.0336,0.0303,0.024,0.0189,0.0152,0.0135,0.0131,0.0105,0.0048,0.0033,0.0024,0.0117,0.0116,0.0115,0.0017,0,0.0514,0.0575,0.0567,0.062,0.0651,0.0617,0.063,0.0615,0.0589,0.0577,0.0487,0.0464,0.0381,0.0361,0.0297,0.0193,0.0139,0.0182,0.0021,0.0017,0.0009,0.0017,0.005,-0.0035,0.001,0.0009,0.0009,0,0.0568,0.0605,0.0672,0.0712,0.0723,0.0741,0.0762,0.0771,0.0737,0.0717,0.0667,0.0596,0.0516,0.044,0.0271,0.0303,0.0187,0.0095,0.0088,0.004,-0.001,-0.0053,-0.0049,-0.0003,-0.0002,-0.0001,-0.0,0,0.0621,0.0678,0.0738,0.0751,0.0785,0.0805,0.0821,0.0812,0.0846,0.0809,0.082,0.0704,0.0659,0.0495,0.0302,0.0287,0.0112,0.0067,-0.0059,-0.0062,-0.0082,-0.0085,-0.0054,-0.0054,-0.0054,-0.0053,-0.0053,0,0.0681,0.0728,0.0768,0.0802,0.0878,0.0873,0.0946,0.0943,0.0962,0.1015,0.0899,0.0909,0.067,0.0539,0.0344,0.0133,0.0143,-0.0046,-0.0087,-0.005,-0.0049,-0.0062,-0.0061,-0.0057,-0.0056,-0.0056,-0.0055,0,0.0728,0.0752,0.0828,0.0882,0.0905,0.096,0.1046,0.1104,0.1103,0.1165,0.1161,0.1067,0.0902,0.0652,0.0393,0.0209,-0.0006,-0.0086,-0.0023,-0.0055,-0.016,-0.0154,-0.0235,-0.0237,-0.0238,-0.0239,-0.0239,0,0.076,0.0802,0.0893,0.0948,0.0976,0.1061,0.1128,0.1171,0.1249,0.1271,0.1314,0.1181,0.1117,0.0736,0.0386,0.0049,-0.0003,-0.0149,-0.0179,-0.0146,-0.0178,-0.017,-0.0163,-0.0176,-0.0176,-0.0176,-0.0176,0,0.0818,0.0844,0.091,0.1028,0.111,0.1221,0.1321,0.1406,0.1461,0.1515,0.1563,0.1514,0.1163,0.084,0.0373,0.0142,-0.0095,-0.0163,-0.0149,-0.0127,-0.0096,-0.0125,-0.0119,-0.0178,-0.0177,-0.0177,-0.0177,-0.0177,0.0859,0.0914,0.0998,0.1111,0.1217,0.1355,0.1458,0.1577,0.171,0.1795,0.1753,0.1693,0.1314,0.0739,0.0329,-0.0105,-0.0087,-0.0244,-0.0241,-0.0239,-0.0206,-0.0178,-0.0269,-0.027,-0.027,-0.027,-0.0271,0,0.091,0.0972,0.1077,0.1213,0.1335,0.1389,0.1571,0.1675,0.1837,0.1921,0.1964,0.1611,0.1253,0.081,0.0173,-0.0203,-0.0234,-0.0325,-0.0282,-0.0277,-0.0273,-0.0242,-0.0315,-0.0316,-0.0318,-0.0319,0,0,0.0935,0.1035,0.1088,0.1279,0.1385,0.1562,0.1672,0.1819,0.1925,0.2003,0.1987,0.1935,0.14,0.0935,0.0416,0.0048,-0.0028,-0.0026,0.0052,0.017,0.0178,-0.0185,-0.0125,0,0,0,0,0]}],[{"header":{"parameterUnit":"m.s-1","parameterCategory":2,"la1":30.2991,"la2":30.254,"lo1":-89.0895,"lo2":-89.0444,"dy":0.0017,"dx":0.0017,"nx":28,"ny":28,"refTime":"2024-12-16T09:00:00:Z","depth":"4","parameterNumber":2,"parameterNumberName":"U-component_of_CURRENTS"},"data":[0,0,0,0,0,0,0,0,0,0,0,0,0,0,0,0,0,0,0,0,0,0,0,0,0,0,0,0,0,0,0,0,0,0,0,0,0,0,0,0,0,0,0,0,0,0,0,0,0,0,0,0,0,0,0,0,0,0,0.2128,0.2129,0,0.2228,0.2229,0.223,0.2306,0.2307,0.2308,0.2309,0.2418,0.242,0.2422,0,0,0,0,0,0,0,0,0,0,0,0,0,0.1996,0.1998,0.2127,0.2129,0.213,0.2228,0.2229,0.223,0.2306,0.2307,0.2308,0.2309,0.2417,0.2419,0.2422,0,0,0,0,0,0,0,0,0,0,0,0,0,0.2068,0.1998,0.2127,0.2182,0.2188,0.2228,0.2229,0.2231,0.2306,0.2307,0.2309,0.231,0.2416,0.2419,0.2422,0.2414,0,0,0.2432,0.2433,0,0,0,0,0,0,0,0,0.2064,0.2073,0.2172,0.2178,0.2185,0.2258,0.2223,0.2293,0.2306,0.2259,0.2309,0.2311,0.2365,0.2373,0.2385,0.2419,0.2424,0.2432,0.2434,0.2435,0.2436,0,0,0,0,0,0,0,0.2059,0.2069,0.2165,0.2174,0.2181,0.22,0.2211,0.2236,0.2302,0.2263,0.2269,0.2284,0.2369,0.2382,0.2389,0.2425,0.2432,0.2434,0.2436,0.2438,0.2597,0.2599,0,0,0,0,0,0,0.205,0.2064,0.2162,0.2168,0.2129,0.2201,0.2214,0.2231,0.2301,0.2314,0.2282,0.2287,0.2376,0.2385,0.2393,0.2512,0.2435,0.2438,0.244,0.2594,0.2597,0.26,0,0,0,0,0,0,0.2047,0.2058,0.2158,0.212,0.2134,0.2202,0.2221,0.2233,0.2295,0.2316,0.2329,0.2338,0.2378,0.2388,0.2464,0.2512,0.2439,0.2442,0.2591,0.2595,0.2598,0.2669,0,0,0,0,0,0,0.2043,0.2056,0.2087,0.2119,0.2136,0.2212,0.222,0.2234,0.2299,0.2307,0.2367,0.2376,0.238,0.246,0.2467,0.2514,0.2444,0.2588,0.2593,0.2597,0.2664,0.2675,0.2684,0,0,0,0,0,0.2037,0.2066,0.2088,0.2102,0.217,0.2214,0.2225,0.2275,0.2301,0.2335,0.2383,0.2377,0.2493,0.2464,0.2472,0.2522,0.2586,0.2592,0.2597,0.2659,0.2673,0.2684,0,0,0,0,0,0,0.2025,0.2078,0.2103,0.2148,0.2194,0.2229,0.2272,0.2301,0.2365,0.2389,0.2406,0.2419,0.2504,0.2504,0.2472,0.2582,0.2539,0.2546,0.2584,0.2596,0.2606,0.2606,0.2447,0,0,0,0,0,0.2036,0.2077,0.2122,0.2164,0.2192,0.2241,0.2275,0.231,0.2358,0.239,0.2433,0.2479,0.2523,0.2555,0.2591,0.2648,0.2655,0.2686,0.2697,0.2705,0.2713,0.2767,0.2783,0.2617,0.2617,0.2617,0,0,0.2042,0.2079,0.2103,0.2166,0.2208,0.2253,0.2266,0.2332,0.238,0.239,0.2485,0.2522,0.2549,0.2619,0.2656,0.2631,0.2758,0.2712,0.2719,0.2722,0.2775,0.2791,0.2805,0.2621,0.262,0.262,0,0,0.2059,0.2112,0.2149,0.2192,0.2266,0.2295,0.2324,0.239,0.244,0.2518,0.2545,0.2614,0.2678,0.2709,0.2728,0.2816,0.2812,0.2835,0.2885,0.2938,0.2952,0.2964,0.2997,0.3011,0.2836,0.2836,0.2836,0,0.207,0.2119,0.2167,0.2213,0.2257,0.2318,0.2365,0.2417,0.2504,0.2549,0.2563,0.2691,0.2716,0.2797,0.2832,0.2838,0.2864,0.2833,0.2951,0.2963,0.2974,0.3004,0.3019,0.284,0.284,0.2839,0.2839,0,0.2098,0.2159,0.2188,0.2265,0.2317,0.2373,0.2442,0.2514,0.2579,0.2625,0.2741,0.2787,0.2859,0.2883,0.2885,0.2985,0.2977,0.2959,0.2915,0.2995,0.3022,0.3036,0.2846,0.2845,0.2843,0.2842,0,0,0.2068,0.2184,0.2201,0.2247,0.2354,0.2391,0.2489,0.2578,0.2654,0.2741,0.2834,0.2917,0.2958,0.2983,0.301,0.3058,0.3159,0.3052,0.3053,0.3076,0.328,0.3074,0.3069,0.317,0.3173,0.3175,0.3267,0,0.2082,0.2164,0.2227,0.2316,0.2364,0.2456,0.2536,0.2631,0.2723,0.283,0.2899,0.3002,0.2991,0.3053,0.3099,0.3157,0.3202,0.3136,0.3206,0.3208,0.3008,0.308,0.3185,0.3278,0.3281,0.3283,0.3285,0,0.2082,0.2143,0.2228,0.2347,0.238,0.2449,0.2595,0.2679,0.283,0.2908,0.3017,0.3081,0.3191,0.3166,0.3286,0.3252,0.3275,0.3299,0.3303,0.3093,0.3027,0.3183,0.3311,0.3309,0.3307,0.3305,0.3303,0,0.2016,0.214,0.2209,0.2251,0.2394,0.2466,0.2556,0.2709,0.2796,0.2982,0.3064,0.3189,0.3279,0.3333,0.3385,0.3359,0.3497,0.3457,0.3288,0.3274,0.34,0.3386,0.3532,0.3532,0.3532,0.3532,0.3531,0,0.1982,0.2044,0.2192,0.223,0.2328,0.2446,0.2571,0.2689,0.2858,0.2955,0.3107,0.3191,0.3332,0.3416,0.3433,0.34,0.3534,0.3307,0.3287,0.3428,0.3416,0.341,0.3395,0.3535,0.3534,0.3534,0.3533,0,0.1895,0.1993,0.2081,0.2243,0.23,0.2377,0.2567,0.265,0.2835,0.2972,0.304,0.3235,0.334,0.3437,0.3544,0.3442,0.3447,0.3401,0.356,0.3547,0.3177,0.3165,0.3211,0.3204,0.3199,0.3194,0.319,0,0.1851,0.1891,0.2069,0.2125,0.2209,0.2339,0.2425,0.2622,0.2706,0.2958,0.2999,0.3188,0.3286,0.327,0.3386,0.3406,0.3364,0.3339,0.3234,0.3169,0.3147,0.3143,0.3138,0.3182,0.318,0.3179,0.3177,0,0.1769,0.1854,0.1929,0.2044,0.2144,0.2231,0.2368,0.2407,0.2624,0.2811,0.2893,0.2957,0.3068,0.3138,0.3187,0.319,0.3338,0.3281,0.329,0.3192,0.3134,0.3117,0.3118,0.3158,0.3161,0.3163,0.3164,0,0.1714,0.1743,0.1854,0.1936,0.2049,0.2086,0.2174,0.2264,0.2367,0.2634,0.2653,0.285,0.3034,0.3028,0.3068,0.3063,0.3006,0.2891,0.292,0.2943,0.281,0.2695,0.2574,0,0,0,0,0,0.1643,0.1661,0.1733,0.1804,0.1904,0.1965,0.2117,0.2207,0.2406,0.2397,0.2517,0.2606,0.2678,0.2785,0.2725,0.2946,0.3016,0.2862,0.2899,0.3053,0.3075,0.2943,0,0,0,0,0,0,0.1596,0.1661,0.1684,0.1673,0.1691,0.1775,0.1862,0.1998,0.2001,0.2218,0.2276,0.244,0.2556,0.2684,0.2672,0.2702,0.2669,0.2988,0.2981,0.3041,0.3061,0.3078,0.295,0,0,0,0,0]},{"header":{"parameterUnit":"m.s-1","parameterCategory":2,"la1":30.2991,"la2":30.254,"lo1":-89.0895,"lo2":-89.0444,"dy":0.0017,"dx":0.0017,"nx":28,"ny":28,"refTime":"2024-12-16T09:00:00:Z","depth":"4","parameterNumber":3,"parameterNumberName":"V-component_of_CURRENTS"},"data":[0,0,0,0,0,0,0,0,0,0,0,0,0,0,0,0,0,0,0,0,0,0,0,0,0,0,0,0,0,0,0,0,0,0,0,0,0,0,0,0,0,0,0,0,0,0,0,0,0,0,0,0,0,0,0,0,0,0,0.0249,0.0249,0,0.0198,0.0197,0.0196,0.0163,0.0163,0.0163,0.0163,0.0092,0.009,0.0088,0,0,0,0,0,0,0,0,0,0,0,0,0,0.0261,0.0261,0.0249,0.0249,0.0248,0.0198,0.0197,0.0196,0.0163,0.0163,0.0163,0.0163,0.0093,0.009,0.0088,0,0,0,0,0,0,0,0,0,0,0,0,0,0.0235,0.0261,0.0249,0.0227,0.0225,0.0198,0.0197,0.0196,0.0163,0.0163,0.0163,0.0163,0.0093,0.0091,0.0088,0.007,0,0,0.0079,0.0078,0,0,0,0,0,0,0,0,0.0237,0.0234,0.0231,0.0229,0.0226,0.0189,0.0175,0.0154,0.0163,0.0184,0.0163,0.0163,0.0124,0.0119,0.0106,0.0067,0.0064,0.0079,0.0077,0.0076,0.0075,0,0,0,0,0,0,0,0.0239,0.0236,0.0226,0.0231,0.0228,0.02,0.0197,0.017,0.0152,0.0182,0.018,0.0178,0.0122,0.0109,0.0104,0.0063,0.0079,0.0077,0.0075,0.0074,0.0017,0.0017,0,0,0,0,0,0,0.0253,0.0238,0.0228,0.0225,0.0234,0.0201,0.0197,0.0199,0.0153,0.0147,0.0178,0.0177,0.0114,0.0107,0.0101,0.0103,0.0076,0.0073,0.0072,0.0016,0.0017,0.0017,0,0,0,0,0,0,0.0253,0.0252,0.023,0.0232,0.0228,0.0201,0.0203,0.0198,0.019,0.0151,0.0144,0.0177,0.0113,0.0105,0.0087,0.0099,0.0072,0.007,0.0016,0.0016,0.0017,0.0089,0,0,0,0,0,0,0.0254,0.0253,0.0259,0.0233,0.0228,0.0225,0.0203,0.0197,0.019,0.0188,0.0148,0.0141,0.0113,0.0092,0.0084,0.0094,0.0067,0.0016,0.0016,0.0017,0.0087,0.0092,0.0096,0,0,0,0,0,0.0254,0.0268,0.026,0.0258,0.0238,0.0226,0.0221,0.0199,0.019,0.0191,0.0165,0.0142,0.0088,0.009,0.0081,0.0091,0.0016,0.0016,0.0017,0.0084,0.0091,0.0096,0,0,0,0,0,0,0.0274,0.0265,0.0256,0.0265,0.0251,0.0221,0.0222,0.0206,0.0185,0.0185,0.0145,0.0136,0.0124,0.0095,0.0098,0.0073,0.0048,0.0047,0.0102,0.0108,0.0113,0.0128,0.0065,0,0,0,0,0,0.0282,0.0291,0.0273,0.0279,0.0277,0.025,0.0243,0.023,0.0209,0.0199,0.0172,0.0141,0.0117,0.0105,0.0078,0.0065,0.0028,0.0064,0.0069,0.0074,0.0079,0.0032,0.0033,0.0018,0.0018,0.0018,0,0,0.0292,0.0288,0.0292,0.0284,0.0271,0.0278,0.0245,0.0243,0.0248,0.0195,0.0193,0.0159,0.0117,0.0105,0.0097,0.0084,0.0058,0.0074,0.0078,0.0081,0.0032,0.0034,0.0035,0.0018,0.0018,0.0018,0,0,0.0319,0.0313,0.033,0.0325,0.0315,0.0301,0.0305,0.0283,0.0273,0.0263,0.0228,0.0203,0.0166,0.0139,0.012,0.0134,0.0086,0.0125,0.0162,0.0117,0.0118,0.0118,0.0075,0.0071,0.0127,0.0127,0.0127,0,0.0331,0.035,0.0332,0.0346,0.0351,0.0318,0.0339,0.0323,0.0297,0.0294,0.0274,0.0217,0.0182,0.0164,0.0168,0.0146,0.0112,0.0147,0.0124,0.0124,0.0123,0.0078,0.0073,0.0131,0.0131,0.013,0.013,0,0.0368,0.0385,0.0395,0.0406,0.0407,0.0419,0.0402,0.0399,0.0382,0.0363,0.0341,0.0285,0.0253,0.0235,0.0206,0.0186,0.0161,0.0138,0.0113,0.0129,0.008,0.0074,0.0136,0.0135,0.0134,0.0133,0,0,0.0395,0.0419,0.0424,0.0444,0.0444,0.0451,0.0462,0.0462,0.0475,0.0431,0.0435,0.0378,0.0344,0.032,0.0273,0.0229,0.0191,0.0187,0.0183,0.0152,0.009,0.0078,0.0069,0.0164,0.0163,0.0163,0.0059,0,0.0431,0.0479,0.0479,0.0525,0.0549,0.0533,0.0548,0.0542,0.0527,0.052,0.0453,0.0438,0.0378,0.0365,0.0311,0.0225,0.0176,0.0221,0.0073,0.0068,0.0062,0.0062,0.016,0.0054,0.0052,0.0051,0.005,0,0.0466,0.0498,0.0553,0.0594,0.0604,0.0625,0.065,0.0663,0.0641,0.0628,0.0591,0.0537,0.0473,0.0417,0.0271,0.0303,0.0206,0.0129,0.0122,0.0082,0.0044,0.0032,0.0037,0.0038,0.0039,0.004,0.004,0,0.0496,0.0548,0.0599,0.0613,0.065,0.0674,0.0696,0.0697,0.0725,0.07,0.0707,0.0614,0.0575,0.044,0.0281,0.0276,0.0112,0.0084,-0.0023,-0.0025,-0.0015,-0.0014,-0.0023,-0.0023,-0.0023,-0.0023,-0.0022,0,0.0531,0.0573,0.0621,0.065,0.0717,0.0726,0.0793,0.0795,0.0815,0.0852,0.0771,0.0763,0.0579,0.0463,0.0306,0.0125,0.0129,-0.0016,-0.0052,0.0018,0.0023,-0.002,-0.0018,-0.0026,-0.0026,-0.0025,-0.0024,0,0.0551,0.0582,0.0648,0.0708,0.0734,0.0784,0.0871,0.0916,0.0924,0.0967,0.0964,0.0875,0.0724,0.0529,0.0307,0.0171,-0.0009,-0.0077,0.0019,-0.001,-0.0125,-0.0118,-0.0205,-0.0206,-0.0207,-0.0208,-0.0209,0,0.0563,0.0599,0.0693,0.0743,0.0776,0.0858,0.0919,0.0967,0.102,0.1032,0.105,0.0933,0.0841,0.053,0.0316,0.0016,-0.0033,-0.0133,-0.014,-0.0117,-0.0144,-0.0135,-0.0127,-0.0211,-0.0211,-0.0211,-0.0212,0,0.0584,0.0621,0.0678,0.0783,0.0861,0.0958,0.1045,0.1093,0.1143,0.1154,0.1118,0.0959,0.0789,0.0539,0.0307,0.009,-0.0071,-0.0145,-0.0145,-0.0152,-0.0125,-0.0149,-0.014,-0.0215,-0.0215,-0.0215,-0.0214,0,0.06,0.0641,0.0719,0.0814,0.0919,0.1017,0.1068,0.1127,0.118,0.1187,0.1173,0.0991,0.0891,0.0577,0.0365,0.015,0.0085,-0.0001,-0.0009,-0.0008,0.0074,0.0139,0.0101,0,0,0,0,0,0.0608,0.0657,0.0743,0.0847,0.0955,0.1021,0.1133,0.1177,0.1226,0.121,0.1195,0.1037,0.073,0.0607,0.0389,0.0323,0.0034,0.0057,-0.0071,-0.0236,-0.0232,-0.0171,0,0,0,0,0,0,0.061,0.0688,0.0735,0.0859,0.0936,0.1059,0.1136,0.1173,0.1168,0.1182,0.1031,0.0963,0.0673,0.0852,0.0379,0.0316,0.0198,-0.0078,-0.0083,-0.0239,-0.0235,-0.0231,-0.0167,0,0,0,0,0]}]]